Regional Weather Roundup
Issued by NWS

Home | Current Version | Previous Version | Graphics & Text | Print | Product List | Glossary On
Versions: 1 2 3 4 5 6 7 8 9 10 11 12 13 14 15 16 17 18 19 20 21 22 23 24 25 26 27 28 29 30 31 32 33 34 35 36 37 38 39 40 41 42 43 44 45 46 47 48 49 50
000
ASUS45 KBOI 281510
RWRID

IDAHO REGIONAL WEATHER ROUNDUP
NATIONAL WEATHER SERVICE BOISE ID
900 AM MDT TUE JUL 28 2015

NOTE: "FAIR" INDICATES FEW OR NO CLOUDS BELOW 12000 FEET
WITH NO SIGNIFICANT WEATHER AND/OR OBSTRUCTIONS TO VISIBILITY

IDZ012-014-281600-
SOUTHWEST IDAHO


CITY           SKY/WX    TMP DP  RH WIND       PRES   REMARKS
BOISE          SUNNY     61  38  42 VRB3      30.26R
CALDWELL       SUNNY     57  34  41 NW5       30.28R
MOUNTAIN HOME  SUNNY     58  35  43 VRB2      30.27R
$$

IDZ016-017-281600-
SOUTHCENTRAL IDAHO


CITY           SKY/WX    TMP DP  RH WIND       PRES   REMARKS
BURLEY         SUNNY     55  35  47 CALM      30.30R
JEROME         SUNNY     54  36  50 CALM      30.30R
TWIN FALLS     SUNNY     60  33  36 SW7       30.27R
$$

IDZ019>023-281600-
SOUTHEAST IDAHO


CITY           SKY/WX    TMP DP  RH WIND       PRES   REMARKS
IDAHO FALLS    SUNNY     50  43  77 CALM      30.32S
POCATELLO      SUNNY     53  43  68 NW6       30.33R
REXBURG        SUNNY     47  40  76 CALM      30.33R
$$

IDZ006-010-011-018-031-032-281600-
CENTRAL IDAHO MOUNTAINS


CITY           SKY/WX    TMP DP  RH WIND       PRES   REMARKS
MCCALL         SUNNY     47  37  68 S5        30.31R
HAILEY         MOSUNNY   48  36  61 NW9       30.34R
STANLEY        NOT AVBL
SALMON         MOSUNNY   50  39  66 CALM      30.32S
CHALLIS        SUNNY     48  39  71 S10       30.35S
$$

IDZ002-004-006-007-026-281600-
NORTHERN IDAHO


CITY           SKY/WX    TMP DP  RH WIND       PRES   REMARKS
LEWISTON       SUNNY     60  48  64 NE6       30.24R
LOWELL           N/A     55  49  80 CALM      30.31R
COEUR D`ALENE  SUNNY     57  46  67 S9        30.22R
MULLAN PASS    SUNNY     45  39  79 CALM      30.28R
$$



USA.gov is the U.S. government's official web portal to all federal, state and local government web resources and services.